Zurück zum Katalog

O3B FM16

AktivKommunikationMEO
NORAD 43232·PAYLOAD·🇱🇺 Luxembourg

Gestartet Mar 9, 2018 von Guiana Space Centre

Loading…

Nächste Überflüge (nächste 24 Stunden)

TLE

AktuellSource: CelesTrak SupGP

Epoche: Sep 13, 2026, 18:00 UTC

1 43232C 18024B   26256.75000000  .00000000  00000+0  00000+0 0  2566
2 43232   0.0588 359.8417 0002569 172.5049 283.8934  5.00116102    18

Verfolge O3B FM16 in Echtzeit mit AllMySat

Download on the App Store